Flag for China Weather past 2 weeks in Chongqing, Chongqing Municipality, China

Now
93 °F

Passing clouds.


Feels Like: 93 °F
Forecast: 82 / 96 °F
Wind: 13 mph from South

Location: Chongqing Airport

Current Time: Aug 3, 2015 at 1:26:01 PM

Latest Report: Aug 3, 2015 at 12:00 PM


Visibility: N/A

Pressure: 29.68 "Hg

Humidity: 34%

Dew point: 61 °F

Location of ChongqingLocation

Historic Weather in Chongqing — Graph

°F

Chongqing temperature yesterday

Maximum temperature yesterday: 99 °F (at 3:00 PM)
Minimum temperature yesterday: 84 °F (at 5:00 AM)
Average temperature yesterday: 90 °F

Past Weeks' High & Low Weather Summary

 TemperatureHumidityPressure
High99 °F (Aug 2, 3:00 PM)94% (Jul 22, 10:00 AM)29.77 "Hg (Jul 22, 10:00 AM)
Low72 °F (Jul 22, 7:00 AM)31% (Aug 2, 4:00 PM)29.62 "Hg (Jul 19, 5:00 PM)
Average86 °F59%29.70 "Hg
* Reported Jul 19 11:00 AM — Aug 3 11:00 AM, Chongqing, Weather by CustomWeather, © 2015

Note: Actual official high and low records may vary slightly from our data, if they occured in-between our weather recording intervals... More about our weather records

Advertising

Chongqing weather history for previous 24 hours

 ConditionsComfort  
Time TempWeatherWind HumidityBarometerVisibility
11:00 AM
Mon, Aug 3
91 °FPassing clouds.10 mph41%29.71 "HgN/A
10:00 AM88 °FPassing clouds.10 mph43%29.71 "HgN/A
9:00 AM86 °FPassing clouds.13 mph46%29.68 "HgN/A
8:00 AM84 °FSunny.8 mph48%29.68 "Hg10 mi
7:00 AM82 °FSunny.8 mph51%29.68 "Hg10 mi
6:00 AM82 °FClear.6 mph51%29.65 "Hg10 mi
5:00 AM84 °FClear.8 mph48%29.65 "Hg10 mi
4:00 AM84 °FClear.3 mph48%29.68 "Hg10 mi
3:00 AM84 °FClear.6 mph48%29.68 "Hg10 mi
2:00 AM86 °FPassing clouds.6 mph49%29.68 "HgN/A
1:00 AM88 °FClear.8 mph43%29.68 "Hg10 mi
12:00 AM88 °FPassing clouds.6 mph46%29.71 "HgN/A
11:00 PM
Sun, Aug 2
88 °FPassing clouds.8 mph43%29.71 "HgN/A
10:00 PM90 °FClear.8 mph41%29.68 "Hg10 mi
9:00 PM90 °FClear.3 mph41%29.68 "Hg10 mi
8:00 PM93 °FClear.13 mph36%29.65 "Hg10 mi
7:00 PM95 °FScattered clouds.10 mph34%29.62 "HgN/A
6:00 PM99 °FScattered clouds.13 mph31%29.62 "HgN/A
5:00 PM99 °FScattered clouds.8 mph31%29.65 "HgN/A
4:00 PM99 °FScattered clouds.10 mph31%29.65 "HgN/A
3:00 PM99 °FScattered clouds.8 mph33%29.68 "HgN/A
2:00 PM97 °FPassing clouds.8 mph34%29.71 "HgN/A
1:00 PM97 °FPassing clouds.6 mph34%29.74 "HgN/A
Weather by CustomWeather, © 2015

See weather overviewHow to use our weather pages